Voltar ao catálogo

STARLINK-34529

AtivoComunicaçõesSSO
NORAD 64936·PAYLOAD·🇺🇸 United States

Lançado Jul 26, 2025 de Vandenberg Space Force Base

Loading…

Próximas Passagens (próximas 24 horas)

TLE

AtualizadoSource: CelesTrak SupGP

Época: Sep 14, 2026, 20:43 UTC

1 64936C 25158E   26257.86368056  .00007008  00000+0  21764-3 0  2577
2 64936  97.2843 116.2019 0001507  87.3886 114.5156 15.33418954    13

Acompanhe STARLINK-34529 em tempo real com AllMySat

Download on the App Store